GW0143 Weather Reports


time (UTC)temp
C
wind
direction
speed
KPH
gust
KPH
rain 1hr
cm
rain 24hr
cm
rain mn
cm
humidity
%
barometer
mb
20260507200521 9 178 9.7 16.1 0.00 0.00 0.00 39 1019.4
20260507195603 8 193 9.7 12.9 0.00 0.00 0.00 43 1019.5
20260507194522 8 187 9.7 16.1 0.00 0.00 0.00 41 1019.5
20260507193516 8 190 9.7 12.9 0.00 0.00 0.00 40 1019.6
20260507192522 7 198 11.3 14.5 0.00 0.00 0.00 47 1019.8
20260507191522 6 200 8.0 12.9 0.00 0.00 0.00 44 1020.0
20260507190522 6 204 9.7 12.9 0.00 0.00 0.00 49 1020.1
20260507185523 6 203 8.0 11.3 0.00 0.00 0.00 45 1020.2
20260507184517 6 200 8.0 9.7 0.00 0.00 0.00 47 1020.4
20260507183517 6 217 6.4 9.7 0.00 0.00 0.00 54 1020.5
20260507182517 6 203 8.0 9.7 0.00 0.00 0.00 51 1020.5
20260507181517 6 218 4.8 8.0 0.00 0.00 0.00 55 1020.6
20260507180518 6 220 6.4 8.0 0.00 0.00 0.00 53 1020.7
20260507175525 6 203 3.2 4.8 0.00 0.00 0.00 45 1020.8
20260507174524 5 193 4.8 6.4 0.00 0.00 0.00 50 1020.8
20260507173524 5 185 3.2 4.8 0.00 0.00 0.00 50 1021.0
20260507172524 5 172 3.2 4.8 0.00 0.00 0.00 49 1021.0
20260507171525 4 170 3.2 6.4 0.00 0.00 0.00 50 1021.1
20260507170525 4 195 4.8 6.4 0.00 0.00 0.00 48 1021.1
20260507165525 5 158 3.2 3.2 0.00 0.00 0.00 43 1021.1
20260507164525 4 141 3.2 6.4 0.00 0.00 0.00 43 1021.2
20260507163525 3 218 3.2 4.8 0.00 0.00 0.00 44 1021.3
20260507162606 2 230 1.6 4.8 0.00 0.00 0.00 44 1021.4
20260507161526 2 243 3.2 4.8 0.00 0.00 0.00 49 1021.4
20260507160520 2 254 6.4 9.7 0.00 0.00 0.00 53 1021.5
20260507155526 3 233 3.2 4.8 0.00 0.00 0.00 50 1021.4
20260507154546 3 176 1.6 1.6 0.00 0.00 0.00 46 1021.5
20260507153527 3 249 3.2 4.8 0.00 0.00 0.00 52 1021.6
20260507152527 3 285 1.6 3.2 0.00 0.00 0.00 51 1021.6
20260507151547 2 66 1.6 3.2 0.00 0.00 0.00 51 1021.7
20260507150527 1 121 1.6 3.2 0.00 0.00 0.00 56 1021.7
20260507145527 0 170 4.8 6.4 0.00 0.00 0.00 58 1021.6
20260507144528 -1 149 3.2 4.8 0.00 0.00 0.00 60 1021.7
20260507143528 -1 150 3.2 4.8 0.00 0.00 0.00 60 1021.6
20260507142528 -1 245 3.2 6.4 0.00 0.00 0.00 62 1021.6
20260507141528 -2 194 4.8 6.4 0.00 0.00 0.00 66 1021.4
20260507140522 -1 213 4.8 8.0 0.00 0.00 0.00 61 1021.5
20260507135543 -1 146 6.4 9.7 0.00 0.00 0.00 60 1021.4
20260507134523 -2 133 9.7 12.9 0.00 0.00 0.00 64 1021.5
20260507133517 -3 210 6.4 9.7 0.00 0.00 0.00 67 1021.4
20260507132518 -3 138 11.3 12.9 0.00 0.00 0.00 65 1021.3
20260507131517 -5 143 9.7 11.3 0.00 0.00 0.00 70 1021.4
20260507130517 -6 147 8.0 9.7 0.00 0.00 0.00 72 1021.4
20260507125518 -8 131 6.4 8.0 0.00 0.00 0.00 76 1021.5
20260507124519 -10 146 9.7 14.5 0.00 0.00 0.00 81 1021.5
20260507123518 -10 148 8.0 9.7 0.00 0.00 0.00 81 1021.5
20260507122518 -10 152 8.0 9.7 0.00 0.00 0.00 81 1021.3
20260507121530 -8 100 3.2 8.0 0.00 0.00 0.00 78 1021.2
20260507120539 -9 149 8.0 9.7 0.00 0.00 0.00 78 1021.2
20260507115519 -10 167 11.3 16.1 0.00 0.00 0.00 85 1021.1
20260507114519 -10 173 8.0 11.3 0.00 0.00 0.00 83 1021.2
20260507113531 -9 106 3.2 8.0 0.00 0.00 0.00 83 1021.0
20260507112519 -10 141 8.0 9.7 0.00 0.00 0.00 87 1021.1
20260507111519 -10 144 6.4 9.7 0.00 0.00 0.00 86 1021.1
20260507110532 -9 160 1.6 3.2 0.00 0.00 0.00 84 1021.1
20260507105520 -8 141 6.4 8.0 0.00 0.00 0.00 84 1021.1
20260507104520 -7 147 8.0 12.9 0.00 0.00 0.00 83 1021.2
20260507103520 -7 145 8.0 9.7 0.00 0.00 0.00 83 1021.2
20260507102520 -8 134 8.0 12.9 0.00 0.00 0.00 84 1021.3
20260507101522 -9 152 9.7 12.9 0.00 0.00 0.00 85 1021.4
20260507100541 -9 179 9.7 12.9 0.00 0.00 0.00 86 1021.5
20260507095521 -7 188 6.4 9.7 0.00 0.00 0.00 83 1021.6
20260507094533 -8 72 1.6 6.4 0.00 0.00 0.00 86 1021.6
20260507093538 -9 63 4.8 6.4 0.00 0.00 0.00 85 1021.5
20260507092521 -11 182 8.0 12.9 0.00 0.00 0.00 87 1021.6
20260507091522 -9 224 6.4 11.3 0.00 0.00 0.00 83 1021.5
20260507090522 -9 159 4.8 8.0 0.00 0.00 0.00 86 1021.3
20260507085518 -9 119 4.8 6.4 0.00 0.00 0.00 87 1021.3
20260507084519 -10 129 4.8 6.4 0.00 0.00 0.00 88 1021.3
20260507083522 -10 146 8.0 11.3 0.00 0.00 0.00 85 1021.3
20260507082516 -8 129 4.8 8.0 0.00 0.00 0.00 85 1021.2
20260507081517 -8 144 6.4 9.7 0.00 0.00 0.00 84 1021.2
20260507080519 -8 144 4.8 4.8 0.00 0.00 0.00 86 1021.3
20260507075523 -8 155 4.8 9.7 0.00 0.00 0.00 86 1021.4
20260507074544 -9 145 8.0 9.7 0.00 0.00 0.00 87 1021.3
20260507073520 -7 154 4.8 6.4 0.00 0.00 0.00 84 1021.5
20260507072520 -8 113 1.6 3.2 0.00 0.00 0.00 86 1021.6
20260507071620 -8 86 1.6 4.8 0.00 0.00 0.00 86 1021.4
20260507070521 -8 221 1.6 3.2 0.00 0.00 0.00 87 1021.3
20260507065520 -7 241 3.2 4.8 0.00 0.00 0.00 85 1021.2
20260507064521 -7 226 4.8 6.4 0.00 0.00 0.00 85 1021.2
20260507063525 -6 271 6.4 11.3 0.00 0.00 0.00 80 1021.0
20260507062541 -6 114 4.8 8.0 0.00 0.00 0.00 84 1021.0
20260507061543 -5 109 3.2 8.0 0.00 0.00 0.00 81 1020.9
20260507060519 -5 132 6.4 9.7 0.00 0.00 0.00 81 1020.8
20260507055519 -5 126 8.0 9.7 0.00 0.00 0.00 82 1020.7
20260507054519 -6 141 9.7 12.9 0.00 0.00 0.00 85 1020.6
20260507053519 -7 165 8.0 11.3 0.00 0.00 0.00 85 1020.7
20260507052520 -7 189 6.4 11.3 0.00 0.00 0.00 87 1020.6
20260507051543 -7 151 3.2 6.4 0.00 0.00 0.00 86 1020.5
20260507050600 -6 191 9.7 12.9 0.00 0.00 0.00 85 1020.6
20260507045522 -5 211 4.8 6.4 0.00 0.00 0.00 82 1020.7
20260507044520 -5 136 9.7 12.9 0.00 0.00 0.00 83 1020.5
20260507043520 -5 141 8.0 11.3 0.00 0.00 0.00 84 1020.5
20260507042540 -6 129 8.0 11.3 0.00 0.00 0.00 86 1020.5
20260507041521 -6 135 8.0 11.3 0.00 0.00 0.00 86 1020.4
20260507040521 -7 147 8.0 9.7 0.00 0.00 0.00 86 1020.4
20260507035601 -7 161 6.4 9.7 0.00 0.00 0.00 87 1020.5
20260507034521 -8 172 8.0 11.3 0.00 0.00 0.00 88 1020.5
20260507033521 -7 185 9.7 12.9 0.00 0.00 0.00 87 1020.4
20260507032521 -7 166 8.0 9.7 0.00 0.00 0.00 88 1020.3
20260507031522 -7 172 8.0 9.7 0.00 0.00 0.00 87 1020.2
20260507030522 -7 181 6.4 8.0 0.00 0.00 0.00 87 1020.2
20260507025522 -7 192 9.7 11.3 0.00 0.00 0.00 87 1020.1
20260507024516 -6 214 4.8 8.0 0.00 0.00 0.00 87 1019.9
20260507023522 -5 201 6.4 11.3 0.00 0.00 0.00 86 1019.8
20260507022523 -5 132 9.7 12.9 0.00 0.00 0.00 86 1019.8
20260507021543 -6 135 8.0 11.3 0.00 0.00 0.00 86 1019.7
20260507020526 -5 164 4.8 6.4 0.00 0.00 0.00 85 1019.7
20260507015526 -5 174 4.8 6.4 0.00 0.00 0.00 85 1019.6
20260507014523 -4 177 8.0 11.3 0.00 0.00 0.00 84 1019.3
20260507013526 -3 186 6.4 8.0 0.00 0.00 0.00 83 1019.4
20260507012526 -2 160 6.4 8.0 0.00 0.00 0.00 80 1019.3
20260507011518 -2 160 6.4 9.7 0.00 0.00 0.00 79 1019.3
20260507010527 -2 164 4.8 6.4 0.00 0.00 0.00 80 1019.4
20260507005527 -2 177 1.6 1.6 0.00 0.00 0.00 79 1019.2
20260507004527 -1 214 3.2 4.8 0.00 0.00 0.00 75 1019.0
20260507003527 0 235 3.2 4.8 0.00 0.00 0.00 69 1018.9
20260507002518 -1 244 4.8 8.0 0.00 0.00 0.00 73 1019.0
20260507001519 -1 261 8.0 9.7 0.00 0.00 0.00 74 1018.9
20260507000519 -1 262 6.4 9.7 0.00 0.00 0.00 76 1018.9
20260506235528 0 288 6.4 8.0 0.00 0.00 0.00 72 1018.9
20260506234519 -1 297 6.4 8.0 0.00 0.00 0.00 75 1018.8
20260506233520 -1 323 6.4 9.7 0.00 0.00 0.00 76 1018.6
20260506232520 0 341 6.4 9.7 0.00 0.00 0.00 75 1018.5
20260506231520 -1 343 8.0 11.3 0.00 0.00 0.00 76 1018.4
20260506230520 0 320 6.4 9.7 0.00 0.00 0.00 75 1018.3
20260506225521 0 322 6.4 12.9 0.00 0.00 0.00 74 1018.1
20260506224520 0 331 6.4 11.3 0.00 0.05 0.00 72 1018.0
20260506223521 0 321 4.8 8.0 0.00 0.05 0.00 71 1018.0
20260506222530 1 323 3.2 6.4 0.00 0.05 0.00 67 1018.0
20260506221530 0 249 1.6 6.4 0.00 0.05 0.00 69 1018.1
20260506220530 0 306 3.2 4.8 0.00 0.05 0.00 71 1018.0
20260506215530 0 13 3.2 6.4 0.00 0.05 0.00 77 1018.1
20260506214531 0 349 3.2 6.4 0.00 0.08 0.00 80 1018.0
20260506213531 0 12 3.2 4.8 0.00 0.08 0.00 79 1017.9
20260506212531 -1 345 3.2 4.8 0.00 0.08 0.00 84 1018.0
20260506211531 -1 352 3.2 6.4 0.00 0.08 0.00 86 1018.1
20260506210551 -1 359 4.8 6.4 0.00 0.08 0.00 88 1018.1
20260506205523 -2 332 4.8 9.7 0.00 0.08 0.00 86 1018.3
20260506204523 -1 329 6.4 9.7 0.00 0.08 0.00 88 1018.2
20260506203603 -1 341 8.0 12.9 0.00 0.08 0.00 88 1018.1
20260506202517 -1 339 8.0 11.3 0.00 0.08 0.00 88 1017.9
20260506201517 0 355 4.8 8.0 0.00 0.08 0.00 90 1017.7